This is the latest recevied weather packets stored in our database for station/object VE2JJ-13. If no packets are shown the sender has not sent any weather packets the latest 10 day(s).
| Time | Temp. | Humidity | Pressure | Rain* | Wind** | Luminosity | Snow |
|---|---|---|---|---|---|---|---|
| 1777900887 | 8.33° C | 94% | 997.2 hPa | 0.25 mm | - | - | - |
| 1777900583 | 8.33° C | 94% | 997.2 hPa | 0.25 mm | - | - | - |
| 1777900283 | 8.33° C | 94% | 997.2 hPa | 0.51 mm | - | - | - |
| 1777899957 | 8.33° C | 94% | 997.2 hPa | 0.76 mm | - | - | - |
| 1777899656 | 8.33° C | 94% | 997.1 hPa | 1.02 mm | - | - | - |
| 1777899325 | 8.33° C | 94% | 997.1 hPa | 1.27 mm | - | - | - |
| 1777899025 | 8.33° C | 94% | 997 hPa | 1.52 mm | - | - | - |
| 1777898695 | 7.78° C | 94% | 997 hPa | 1.52 mm | - | - | - |
| 1777898393 | 7.78° C | 94% | 996.9 hPa | 1.78 mm | - | - | - |
| 1777898064 | 7.78° C | 94% | 996.9 hPa | 2.03 mm | - | - | - |
| 1777897740 | 7.78° C | 94% | 997 hPa | 2.03 mm | - | - | - |
| 1777897433 | 7.78° C | 94% | 997 hPa | 2.03 mm | - | - | - |
| 1777897133 | 7.78° C | 94% | 997 hPa | 1.78 mm | - | - | - |
| 1777896808 | 7.78° C | 93% | 997.2 hPa | 1.52 mm | - | - | - |
| 1777896476 | 7.78° C | 93% | 997.2 hPa | 1.27 mm | - | - | - |
| 1777896173 | 7.78° C | 93% | 997 hPa | 1.02 mm | - | - | - |
| 1777895846 | 7.78° C | 93% | 997 hPa | 1.02 mm | - | - | - |
| 1777895213 | 7.78° C | 92% | 996.9 hPa | 0.51 mm | - | - | - |
| 1777894884 | 7.22° C | 92% | 996.9 hPa | 0.25 mm | - | - | - |
| 1777894553 | 7.22° C | 92% | 997 hPa | 0 mm | - | - | - |
| 1777894224 | 7.22° C | 91% | 997 hPa | 0 mm | - | - | - |
| 1777893923 | 7.22° C | 91% | 996.6 hPa | 0 mm | - | - | - |
| 1777893626 | 7.22° C | 91% | 996.6 hPa | 0 mm | - | - | - |
| 1777893294 | 6.67° C | 91% | 997 hPa | 0 mm | - | - | - |
| 1777892964 | 6.67° C | 91% | 997 hPa | 0 mm | - | - | - |
* Rain latest hour (hover to see other rain measurements)
** Current wind speed in m/s (hover to see current wind gust speed)